VLG1AE LEMH-LEBB

Flight info

Callsign VLG1AE
Flight time N/A
Altitude 37000
Route LUNIK DCT BCN M601 REBUL/N0429F330 M601 POSSY/N0422F310 M601 CEGAM
Aircraft A320/M-SDFGHILORVWXY/LB1

Departure

Time 2026-05-06 18:18
Airport Menorca Airport (LEMH)

Arrival

Time N/A
Airport Bilbao Airport (LEBB)
Time Latitude Longitude Altitude Speed Heading
2026-05-06 17:46 39.86714 4.22464 293 ft 0 kts 99°
2026-05-06 17:47 39.86714 4.22466 293 ft 0 kts 99°
2026-05-06 18:09 39.86717 4.22438 293 ft 4 kts 99°
2026-05-06 18:09 39.86720 4.22409 294 ft 3 kts 99°
2026-05-06 18:09 39.86729 4.22381 294 ft 4 kts 148°
2026-05-06 18:10 39.86751 4.22376 294 ft 4 kts 189°
2026-05-06 18:10 39.86764 4.22379 292 ft 0 kts 189°
2026-05-06 18:12 39.86763 4.22379 292 ft 1 kts 189°
2026-05-06 18:12 39.86733 4.22373 293 ft 8 kts 189°
2026-05-06 18:13 39.86663 4.22358 293 ft 11 kts 189°
2026-05-06 18:13 39.86587 4.22342 289 ft 11 kts 189°
2026-05-06 18:13 39.86513 4.22327 288 ft 10 kts 189°
2026-05-06 18:13 39.86447 4.22313 288 ft 9 kts 189°
2026-05-06 18:14 39.86388 4.22300 288 ft 8 kts 189°
2026-05-06 18:14 39.86326 4.22287 288 ft 9 kts 189°
2026-05-06 18:14 39.86235 4.22268 288 ft 16 kts 189°
2026-05-06 18:14 39.86183 4.22213 293 ft 9 kts 272°
2026-05-06 18:15 39.86185 4.22107 293 ft 13 kts 240°
2026-05-06 18:15 39.86098 4.22070 295 ft 16 kts 189°
2026-05-06 18:15 39.85976 4.22044 296 ft 20 kts 189°
2026-05-06 18:15 39.85830 4.22014 294 ft 23 kts 189°
2026-05-06 18:16 39.85659 4.21980 289 ft 27 kts 189°
2026-05-06 18:16 39.85460 4.21939 284 ft 31 kts 189°
2026-05-06 18:16 39.85256 4.21898 281 ft 25 kts 189°
2026-05-06 18:16 39.85137 4.21873 281 ft 15 kts 188°
2026-05-06 18:17 39.85062 4.21805 280 ft 13 kts 264°
2026-05-06 18:17 39.85104 4.21721 283 ft 9 kts 310°
2026-05-06 18:17 39.85143 4.21656 288 ft 12 kts 317°
2026-05-06 18:17 39.85216 4.21650 286 ft 12 kts
2026-05-06 18:18 39.85414 4.21692 287 ft 61 kts
2026-05-06 18:18 39.86057 4.21826 304 ft 124 kts
2026-05-06 18:18 39.87024 4.22035 645 ft 140 kts 12°
2026-05-06 18:18 39.87993 4.22242 1144 ft 144 kts 12°
2026-05-06 18:19 39.89004 4.22477 1648 ft 149 kts 13°
2026-05-06 18:19 39.90047 4.22729 2085 ft 159 kts 11°
2026-05-06 18:19 39.91232 4.22988 2356 ft 184 kts 10°
2026-05-06 18:19 39.92572 4.23282 2720 ft 206 kts 10°
2026-05-06 18:20 39.94081 4.23587 3063 ft 232 kts
2026-05-06 18:20 39.95753 4.23451 3520 ft 255 kts 337°
2026-05-06 18:20 39.97206 4.22074 4264 ft 263 kts 313°
2026-05-06 18:20 39.98325 4.20188 5242 ft 263 kts 301°
2026-05-06 18:21 39.99199 4.18102 6254 ft 264 kts 294°
2026-05-06 18:21 39.99680 4.16638 6809 ft 267 kts 289°
2026-05-06 18:21 39.99947 4.13485 8006 ft 268 kts 258°
2026-05-06 18:21 39.99296 4.11193 8869 ft 272 kts 243°
2026-05-06 18:22 39.98497 4.08957 9858 ft 272 kts 251°
2026-05-06 18:22 39.98174 4.07374 10382 ft 277 kts 259°
2026-05-06 18:22 39.98099 4.04764 10681 ft 301 kts 276°
2026-05-06 18:22 39.98671 4.02055 11172 ft 318 kts 292°
2026-05-06 18:23 39.99845 3.99570 11903 ft 327 kts 307°
2026-05-06 18:23 40.01416 3.97388 12697 ft 332 kts 310°
2026-05-06 18:23 40.03035 3.95204 13499 ft 336 kts 310°